This demonstration page uses our WeatherBlox Daily Observations layout. Learn more.

Left ArrowRight Arrow

Hourly Observations for September 13, 2015

Temp ( °F °C ) Dew Point ( °F °C ) Humidity (%) Winds ( mph kmh ) Pressure ( in mb ) Visibility ( mi km ) Precip ( " mm )
12:53 am 00:53 Mostly Cloudy 52 11.1 48 8.9 86 86 NNW 3 6 29.98 1015 10 16.0934 0 0
1:53 am 01:53 Cloudy 54 12.2 49 9.4 83 83 NNW 6 9 29.98 1015 10 16.0934 0 0
2:53 am 02:53 Cloudy 54 12.2 49 9.4 83 83 NNW 8 13 29.98 1015 10 16.0934 0 0
3:53 am 03:53 Cloudy 54 12.2 48 8.9 80 80 NW 9 15 29.99 1016 10 16.0934 0 0
4:53 am 04:53 Cloudy 54 12.2 49 9.4 83 83 NW 7 11 29.99 1016 10 16.0934 0 0
5:53 am 05:53 Cloudy 54 12.2 50 10 87 87 NW 5 7 29.99 1016 10 16.0934 0 0
6:53 am 06:53 Cloudy 53 11.7 49 9.4 86 86 NW 5 7 30.01 1016 10 16.0934 0 0
7:53 am 07:53 Sunny 50 10 48 8.9 93 93 Calm 30.04 1017 10 16.0934 0 0
8:53 am 08:53 Sunny 55 12.8 50 10 83 83 W 3 6 30.05 1018 10 16.0934 0 0
9:53 am 09:53 Sunny 58 14.4 51 10.6 78 78 VRB 6 9 30.06 1018 10 16.0934 0 0
10:53 am 10:53 Partly Cloudy 62 16.7 50 10 65 65 WNW 7 11 30.07 1018 10 16.0934 0 0
11:53 am 11:53 Mostly Cloudy 64 17.8 47 8.3 54 54 NW 8 13 30.08 1019 10 16.0934 0 0
12:53 pm 12:53 Mostly Sunny 64 17.8 46 7.8 52 52 WNW 8 13 30.07 1018 10 16.0934 0 0
1:53 pm 13:53 Partly Cloudy 67 19.4 43 6.1 42 42 NNW 8 13 30.06 1018 10 16.0934 0 0
2:53 pm 14:53 Mostly Sunny 67 19.4 41 5 39 39 NW 7 11 30.05 1018 10 16.0934 0 0
3:53 pm 15:53 Sunny 70 21.1 42 5.6 37 37 NW 10 17 30.05 1018 10 16.0934 0 0
4:53 pm 16:53 Mostly Cloudy 69 20.6 41 5 36 36 WNW 10 17 30.05 1018 10 16.0934 0 0
5:53 pm 17:53 Mostly Cloudy 69 20.6 43 6.1 39 39 N 8 13 30.05 1018 10 16.0934 0 0
6:53 pm 18:53 Mostly Sunny 67 19.4 43 6.1 42 42 WSW 3 6 30.05 1018 10 16.0934 0 0
7:53 pm 19:53 Clear 56 13.3 51 10.6 84 84 Calm 30.06 1018 10 16.0934 0 0
8:53 pm 20:53 Clear 51 10.6 49 9.4 92 92 Calm 30.08 1019 10 16.0934 0 0
9:53 pm 21:53 Clear 50 10 48 8.9 93 93 Calm 30.09 1019 10 16.0934 0 0
10:53 pm 22:53 Clear 49 9.4 47 8.3 93 93 Calm 30.1 1019 10 16.0934 0 0
11:53 pm 23:53 Clear 48 8.9 47 8.3 96 96 Calm 30.11 1020 10 16.0934 0 0

Powered by AerisWeather